{"data":{"norad_id":60497,"intl_designator":"2024-149AF","name":"FLOCK 4BE-32","alt_names":[],"object_type":"PAYLOAD","status":"ACTIVE","operator":null,"country":"US","launch_date":"2024-08-16","launch_site_code":"AFWTR","launch_vehicle":null,"mission":null,"orbit_class":"UNKNOWN","rcs_meters":null,"size_class":null,"mass_kg":null,"dimensions":null,"purposes":["earth_obs"],"wikipedia_slug":null,"has_3d_model":false,"image_url":null,"decayed_at":null,"tle_current":{"epoch":"2026-05-25T05:05:15.021024Z","epoch_age_seconds":50689,"freshness":"FRESH","line1":"1 60497U 24149AF  26145.21197941  .00017558  00000+0  42373-3 0  9995","line2":"2 60497  97.3722 228.9058 0003160  26.6409 333.4999 15.41261056 98793","mean_motion":15.41261056,"eccentricity":0.000316,"inclination_deg":97.3722,"raan_deg":228.9058,"arg_perigee_deg":26.6409,"mean_anomaly_deg":333.4999,"bstar":0.00042373,"rev_number":9879,"period_min":93.429986723807,"perigee_km":440.23113709901,"apogee_km":444.54170790203,"semimajor_km":6820.5234225005,"source":"CELESTRAK","updated_at":"2026-05-25T13:38:13.304892Z"}}}